TimePST,TemperatureF,Dew PointF,Humidity,Sea Level PressureIn,VisibilityMPH,Wind Direction,Wind SpeedMPH,Gust SpeedMPH,PrecipitationIn,Events,Conditions,WindDirDegrees,DateUTC
12:06 AM,50.0,39.2,66,29.95,10.0,Calm,Calm,-,0.00,,Mostly Cloudy,0,2013-02-09 08:06:00
12:52 AM,48.0,39.9,74,29.95,10.0,Calm,Calm,-,0.00,,Mostly Cloudy,0,2013-02-09 08:52:00
1:16 AM,48.2,42.8,82,29.95,10.0,Calm,Calm,-,0.00,Rain,Light Rain,0,2013-02-09 09:16:00
1:52 AM,48.0,41.0,77,29.95,10.0,ENE,4.6,-,0.04,Rain,Light Rain,60,2013-02-09 09:52:00
2:04 AM,48.2,41.0,76,29.95,10.0,East,5.8,-,0.00,,Mostly Cloudy,90,2013-02-09 10:04:00
2:52 AM,46.9,42.1,83,29.96,9.0,East,6.9,-,0.00,Rain,Light Rain,90,2013-02-09 10:52:00
3:36 AM,46.4,41.0,81,29.96,9.0,East,6.9,-,0.01,,Mostly Cloudy,90,2013-02-09 11:36:00
3:52 AM,46.9,41.0,80,29.96,9.0,East,5.8,-,0.01,,Mostly Cloudy,100,2013-02-09 11:52:00
4:52 AM,46.9,41.0,80,29.97,10.0,East,4.6,-,N/A,,Mostly Cloudy,90,2013-02-09 12:52:00
5:52 AM,46.0,39.9,79,29.98,10.0,ESE,5.8,-,N/A,,Scattered Clouds,110,2013-02-09 13:52:00
6:52 AM,46.9,41.0,80,30.01,10.0,Calm,Calm,-,N/A,,Scattered Clouds,0,2013-02-09 14:52:00
7:52 AM,48.9,42.1,77,30.04,10.0,ESE,3.5,-,N/A,,Scattered Clouds,110,2013-02-09 15:52:00
8:52 AM,52.0,42.1,69,30.06,7.0,SE,6.9,-,N/A,,Mostly Cloudy,130,2013-02-09 16:52:00
9:52 AM,55.0,44.1,67,30.07,8.0,SE,6.9,-,N/A,,Mostly Cloudy,140,2013-02-09 17:52:00
10:52 AM,57.0,44.1,62,30.08,8.0,SSE,5.8,-,N/A,,Mostly Cloudy,150,2013-02-09 18:52:00
11:52 AM,55.9,43.0,62,30.08,8.0,SSE,5.8,-,N/A,,Mostly Cloudy,160,2013-02-09 19:52:00
12:52 PM,57.9,42.1,56,30.06,10.0,West,9.2,-,N/A,,Mostly Cloudy,260,2013-02-09 20:52:00
1:52 PM,60.1,39.0,46,30.05,10.0,West,9.2,-,N/A,,Mostly Cloudy,270,2013-02-09 21:52:00
2:52 PM,60.1,39.0,46,30.05,10.0,West,10.4,-,N/A,,Mostly Cloudy,260,2013-02-09 22:52:00
3:52 PM,59.0,39.9,49,30.05,10.0,West,10.4,-,N/A,,Scattered Clouds,280,2013-02-09 23:52:00
4:52 PM,57.0,39.9,53,30.05,10.0,NW,9.2,-,N/A,,Scattered Clouds,320,2013-02-10 00:52:00
5:52 PM,55.0,39.0,55,30.06,10.0,West,5.8,-,N/A,,Scattered Clouds,280,2013-02-10 01:52:00
6:52 PM,54.0,39.0,57,30.08,10.0,West,3.5,-,N/A,,Scattered Clouds,270,2013-02-10 02:52:00
7:52 PM,54.0,39.0,57,30.09,10.0,West,4.6,-,N/A,,Partly Cloudy,280,2013-02-10 03:52:00
8:52 PM,52.0,39.0,61,30.10,10.0,Calm,Calm,-,N/A,,Partly Cloudy,0,2013-02-10 04:52:00
9:52 PM,53.1,37.9,57,30.12,10.0,West,5.8,-,N/A,,Scattered Clouds,280,2013-02-10 05:52:00
10:52 PM,52.0,37.9,59,30.12,10.0,WNW,3.5,-,N/A,,Scattered Clouds,290,2013-02-10 06:52:00
11:52 PM,48.0,37.9,68,30.12,9.0,East,4.6,-,N/A,,Scattered Clouds,100,2013-02-10 07:52:00